Showing default

IONOSFERA-M 03, 64876

Orbit data source: Space-Track

IONOSFERA-M 03, 64876 is a payload satellite owned by VNIIEM (CIS) in SSO that was launched on Fri, 25 Jul 2025 UTC via a SOYUZ-2-1B launch vehicle from the Vostochny Cosmodrome (VOSTO). Payload-class satellites include a variety of spacecraft equipped with specific instruments for various scientific and technological missions. These include communications satellites like Starlink; space stations such as the ISS; scientific satellites like the Hubble; Earth observation satellites from companies like Planet Labs, Umbra, and HawkEye 360; GPS; miniature CubeSats for education and research; and military/defense satellites.

Loading next visibility...
Identifier
64876, 2025-155A
Orbit
SSO
Country
Flag of CISCIS
Related business
Manufacturer
VNIIEM
Mission
Operational spacecraft
Bus & Motor
IONOSFERA-M, Unknown motor
Mass
430 kg wet, 430 kg dry
Launch date (UTC)
2025-07-25 (1 month ago)
Launch vehicle
SOYUZ-2-1B
Launch site
Vostochny Cosmodrome (VOSTO)
Object type
Payload
Rocket body
Debris
Shape & HBR
Unknown
Radar Cross Section
Large (>1 m²)

Expand to show TLE details & history
Last TLE update: 8 hours ago

TLE from 8 hours ago
0 IONOSFERA-M 03
1 64876U 25155A   25242.89936540  .00000145  00000-0  84622-4 0  9994
2 64876  98.5594 207.7641 0001580  28.3003 331.8260 14.22098848  5161
Epoch: 2025-08-30T21:35Z
TLE epoch observation values (Epoch: 2025-08-30T21:35:05.17Z)
Latitude
-0.0001°
Longitude
-95.33447°
Altitude
820.183 km
Speed
7.444 km/s
True Right ascension
13h 51m 03s
True Declination
0° 00' 00"
Sunlit
Object was in daylight at epoch
Visualization orbit readout
Latitude
Unknown
Longitude
Unknown
Altitude
Unknown
Speed
Unknown
Apparent Right ascension
Unknown
Apparent Declination
Unknown
Sunlit
N/A
Visualization observer readout
Local Sidereal Time
21:40:24
Azimuth
Unknown
Elevation
Unknown
Doppler factor
Unknown
Orbital elements
Apogee altitude
816.549 km
Perigee altitude
814.275 km
Semi-major axis
7,193.549 km
Eccentricity
0.00016
Inclination
98.5594°
RAAN
207.7641°
Arg. of periapsis
28.3003°
True anomaly
331.81745°
Mean anomaly
331.826°
Eccentric anomaly
331.82173°
Mean motion
3.55736 °/min
Orbital period
101.2 mins
BSTAR
0.000084622
Loading maneuver chart data...
Computing Atmospheric mass density...
Loading historical data...
Loading historical data...
Loading historical data...
Loading historical data...
Loading historical data...
Loading historical data...
Loading historical data...

Documentation

Showing up to 5 results
|